TimeEST,TemperatureF,Dew PointF,Humidity,Sea Level PressureIn,VisibilityMPH,Wind Direction,Wind SpeedMPH,Gust SpeedMPH,PrecipitationIn,Events,Conditions,WindDirDegrees,DateUTC
12:15 AM,30.2,24.8,80,30.09,10.0,WNW,5.8,-,N/A,,Clear,290,2013-11-08 05:15:00
12:35 AM,30.2,24.8,80,30.09,10.0,WNW,8.1,-,N/A,,Clear,290,2013-11-08 05:35:00
12:55 AM,30.2,24.8,80,30.10,10.0,WNW,10.4,-,N/A,,Clear,290,2013-11-08 05:55:00
1:15 AM,30.2,24.8,80,30.10,10.0,WNW,10.4,-,N/A,,Clear,290,2013-11-08 06:15:00
1:35 AM,30.2,26.6,86,30.10,10.0,WNW,8.1,-,N/A,,Clear,300,2013-11-08 06:35:00
1:55 AM,30.2,24.8,80,30.11,10.0,WNW,8.1,-,N/A,,Partly Cloudy,300,2013-11-08 06:55:00
2:15 AM,30.2,24.8,80,30.11,10.0,WNW,6.9,-,N/A,,Mostly Cloudy,290,2013-11-08 07:15:00
2:35 AM,30.2,24.8,80,30.12,10.0,West,4.6,-,N/A,,Overcast,280,2013-11-08 07:35:00
2:55 AM,30.2,26.6,86,30.13,10.0,West,5.8,-,N/A,,Overcast,280,2013-11-08 07:55:00
3:15 AM,30.2,26.6,86,30.13,10.0,West,5.8,-,N/A,,Overcast,280,2013-11-08 08:15:00
3:35 AM,30.2,26.6,86,30.13,10.0,West,6.9,-,N/A,,Overcast,280,2013-11-08 08:35:00
3:55 AM,30.2,26.6,86,30.13,10.0,West,6.9,-,N/A,,Overcast,270,2013-11-08 08:55:00
4:15 AM,32.0,26.6,80,30.14,10.0,West,5.8,-,N/A,,Overcast,280,2013-11-08 09:15:00
4:35 AM,32.0,26.6,80,30.14,10.0,West,6.9,-,N/A,,Overcast,270,2013-11-08 09:35:00
4:55 AM,32.0,26.6,80,30.14,10.0,West,6.9,-,N/A,,Overcast,280,2013-11-08 09:55:00
5:15 AM,32.0,26.6,80,30.14,10.0,West,5.8,-,N/A,,Overcast,270,2013-11-08 10:15:00
5:35 AM,32.0,26.6,80,30.15,10.0,West,5.8,-,N/A,,Overcast,270,2013-11-08 10:35:00
5:55 AM,32.0,24.8,75,30.15,10.0,West,4.6,-,N/A,,Overcast,270,2013-11-08 10:55:00
6:15 AM,32.0,24.8,75,30.16,10.0,West,5.8,-,N/A,,Overcast,260,2013-11-08 11:15:00
6:35 AM,32.0,26.6,80,30.16,10.0,West,5.8,-,N/A,,Overcast,280,2013-11-08 11:35:00
6:55 AM,32.0,24.8,75,30.16,10.0,West,4.6,-,N/A,,Overcast,270,2013-11-08 11:55:00
7:15 AM,32.0,24.8,75,30.17,10.0,West,5.8,-,N/A,,Overcast,260,2013-11-08 12:15:00
7:35 AM,32.0,24.8,75,30.17,10.0,West,5.8,-,N/A,,Overcast,280,2013-11-08 12:35:00
7:55 AM,32.0,24.8,75,30.18,10.0,West,5.8,-,N/A,,Overcast,260,2013-11-08 12:55:00
8:15 AM,32.0,24.8,75,30.18,10.0,West,5.8,-,N/A,,Overcast,260,2013-11-08 13:15:00
8:35 AM,33.8,24.8,70,30.19,10.0,West,5.8,-,N/A,,Overcast,260,2013-11-08 13:35:00
8:55 AM,33.8,24.8,70,30.19,10.0,West,8.1,-,N/A,,Overcast,260,2013-11-08 13:55:00
9:15 AM,33.8,24.8,70,30.19,10.0,West,5.8,-,N/A,,Overcast,270,2013-11-08 14:15:00
9:35 AM,33.8,23.0,65,30.19,10.0,West,8.1,-,N/A,,Overcast,270,2013-11-08 14:35:00
9:55 AM,35.6,21.2,56,30.19,10.0,West,9.2,-,N/A,,Mostly Cloudy,280,2013-11-08 14:55:00
10:15 AM,35.6,21.2,56,30.19,10.0,West,10.4,-,N/A,,Partly Cloudy,270,2013-11-08 15:15:00
10:35 AM,37.4,21.2,52,30.19,10.0,West,8.1,-,N/A,,Clear,270,2013-11-08 15:35:00
10:55 AM,39.2,19.4,45,30.18,10.0,WSW,9.2,-,N/A,,Clear,250,2013-11-08 15:55:00
11:15 AM,39.2,17.6,42,30.18,10.0,WSW,8.1,-,N/A,,Clear,250,2013-11-08 16:15:00
11:35 AM,39.2,17.6,42,30.18,10.0,SW,9.2,-,N/A,,Clear,220,2013-11-08 16:35:00
11:55 AM,39.2,17.6,42,30.18,10.0,WSW,3.5,-,N/A,,Clear,250,2013-11-08 16:55:00
12:15 PM,39.2,17.6,42,30.17,10.0,WSW,6.9,-,N/A,,Clear,240,2013-11-08 17:15:00
12:35 PM,39.2,15.8,39,30.16,10.0,WSW,10.4,-,N/A,,Clear,250,2013-11-08 17:35:00
12:55 PM,39.2,17.6,42,30.15,10.0,West,6.9,-,N/A,,Clear,270,2013-11-08 17:55:00
1:15 PM,41.0,17.6,39,30.14,10.0,WSW,9.2,-,N/A,,Clear,240,2013-11-08 18:15:00
1:35 PM,41.0,17.6,39,30.13,10.0,SSW,9.2,-,N/A,,Clear,210,2013-11-08 18:35:00
1:55 PM,42.8,19.4,39,30.12,10.0,South,11.5,-,N/A,,Clear,180,2013-11-08 18:55:00
2:15 PM,42.8,21.2,42,30.11,10.0,South,13.8,17.3,N/A,,Clear,180,2013-11-08 19:15:00
2:35 PM,41.0,21.2,45,30.11,10.0,South,13.8,17.3,N/A,,Clear,180,2013-11-08 19:35:00
2:55 PM,42.8,21.2,42,30.10,10.0,South,11.5,18.4,N/A,,Clear,180,2013-11-08 19:55:00
3:15 PM,41.0,23.0,49,30.10,10.0,South,10.4,16.1,N/A,,Clear,180,2013-11-08 20:15:00
3:35 PM,41.0,23.0,49,30.10,10.0,South,9.2,-,N/A,,Clear,180,2013-11-08 20:35:00
3:55 PM,39.2,26.6,61,30.10,10.0,South,11.5,-,N/A,,Clear,190,2013-11-08 20:55:00
4:15 PM,39.2,24.8,56,30.10,10.0,South,10.4,-,N/A,,Clear,190,2013-11-08 21:15:00
4:35 PM,39.2,24.8,56,30.09,10.0,South,9.2,-,N/A,,Clear,190,2013-11-08 21:35:00
4:55 PM,39.2,26.6,61,30.09,10.0,South,9.2,-,N/A,,Clear,190,2013-11-08 21:55:00
5:15 PM,37.4,28.4,70,30.08,10.0,SSW,5.8,-,N/A,,Clear,200,2013-11-08 22:15:00
5:35 PM,37.4,28.4,70,30.08,10.0,South,5.8,-,N/A,,Partly Cloudy,190,2013-11-08 22:35:00
5:55 PM,39.2,28.4,65,30.07,10.0,South,6.9,-,N/A,,Scattered Clouds,190,2013-11-08 22:55:00
6:15 PM,37.4,26.6,65,30.07,10.0,SSW,8.1,-,N/A,,Mostly Cloudy,200,2013-11-08 23:15:00
6:35 PM,37.4,26.6,65,30.06,10.0,SW,5.8,-,N/A,,Partly Cloudy,220,2013-11-08 23:35:00
6:55 PM,37.4,26.6,65,30.05,10.0,SW,6.9,-,N/A,,Mostly Cloudy,220,2013-11-08 23:55:00
7:15 PM,37.4,24.8,60,30.05,10.0,SW,4.6,-,N/A,,Overcast,230,2013-11-09 00:15:00
7:35 PM,37.4,24.8,60,30.05,10.0,SW,4.6,-,N/A,,Overcast,230,2013-11-09 00:35:00
7:55 PM,37.4,26.6,65,30.04,10.0,South,6.9,-,N/A,,Overcast,170,2013-11-09 00:55:00
8:15 PM,39.2,28.4,65,30.04,10.0,South,8.1,-,N/A,,Overcast,180,2013-11-09 01:15:00
8:35 PM,41.0,28.4,61,30.03,10.0,South,9.2,-,N/A,,Overcast,180,2013-11-09 01:35:00
8:55 PM,41.0,30.2,65,30.03,10.0,South,10.4,-,N/A,,Overcast,180,2013-11-09 01:55:00
9:15 PM,41.0,30.2,65,30.01,10.0,South,9.2,-,N/A,,Overcast,170,2013-11-09 02:15:00
9:35 PM,42.8,30.2,61,30.02,10.0,South,12.7,18.4,N/A,,Overcast,180,2013-11-09 02:35:00
9:55 PM,41.0,30.2,65,30.01,10.0,SSW,15.0,24.2,N/A,,Overcast,200,2013-11-09 02:55:00
10:15 PM,41.0,30.2,65,30.00,10.0,South,5.8,-,N/A,,Overcast,190,2013-11-09 03:15:00
10:35 PM,42.8,30.2,61,29.99,10.0,South,10.4,-,N/A,,Overcast,170,2013-11-09 03:35:00
10:55 PM,42.8,33.8,70,29.96,10.0,SSE,13.8,-,N/A,,Overcast,160,2013-11-09 03:55:00
11:15 PM,42.8,33.8,70,29.95,10.0,SSE,10.4,21.9,N/A,,Overcast,160,2013-11-09 04:15:00
11:35 PM,44.6,35.6,71,29.93,10.0,South,13.8,19.6,N/A,,Mostly Cloudy,170,2013-11-09 04:35:00
11:55 PM,44.6,35.6,71,29.91,10.0,South,17.3,25.3,N/A,,Overcast,170,2013-11-09 04:55:00